Location: Aalen
(48.8330°N, 10.1000°E)
Time: 08:43:34
(UTC+02:00)

Transit 2A - Pass Details

Date: 01 August 2021
Orbit: 594 x 964 km, 66.7° (Epoch: 24 September)

Event Time Altitude Azimuth Distance (km) Brightness Sun altitude
Rises 10:42:05 0° 289° (WNW) 2,945 8.6 44.8°
Reaches altitude 10° 10:45:49 10° 321° (NW) 2,110 8.0 45.3°
Maximum altitude 10:47:41 12° 344° (NNW) 2,011 8.0 45.6°
Drops below altitude 10° 10:49:37 10° 7° (N) 2,196 8.3 45.9°
Sets 10:53:44 0° 38° (NE) 3,221 9.3 46.4°
